Flag for Germany Weather past 2 weeks in Fürth, Bavaria, Germany

Now
57 °F

Sunny.


Feels Like: 57 °F
Forecast: 46 / 56 °F
Wind: 5 mph from Southeast

Location: Nuernberg

Current Time: May 25, 2015 at 8:39:12 AM

Latest Report: May 25, 2015 at 8:20 AM


Visibility: 10 mi

Pressure: 29.98 "Hg

Humidity: 77%

Dew point: 50 °F

Location of FürthLocation

Historic Weather in Fürth — Graph

°F

Fürth temperature yesterday

Maximum temperature yesterday: 66 °F (at 2:20 PM)
Minimum temperature yesterday: 55 °F (at 3:50 AM)
Average temperature yesterday: 59 °F

Past Weeks' High & Low Weather Summary

 TemperatureHumidityPressure
High82 °F (May 12, 3:20 PM)100% (May 21, 2:20 AM)30.36 "Hg (May 21, 2:20 AM)
Low37 °F (May 22, 4:50 AM)27% (May 18, 6:20 PM)29.71 "Hg (May 18, 7:20 PM)
Average57 °F62%30.07 "Hg
* Reported May 10 7:20 AM — May 25 7:20 AM, Fürth, Weather by CustomWeather, © 2015

Note: Actual official high and low records may vary slightly from our data, if they occured in-between our weather recording intervals... More about our weather records

Advertising

Fürth weather history for previous 24 hours

 ConditionsComfort  
Time TempWeatherWind HumidityBarometerVisibility
7:20 AM
Mon, May 25
54 °FSunny.5 mph88%29.98 "Hg10 mi
6:50 AM54 °FSunny.3 mph88%29.98 "Hg10 mi
6:20 AM54 °FSunny.5 mph82%30.01 "Hg10 mi
5:50 AM54 °FPassing clouds.3 mph88%30.01 "HgN/A
5:20 AM54 °FClear.7 mph82%30.01 "Hg10 mi
4:50 AM54 °FClear.5 mph82%30.01 "Hg10 mi
4:20 AM54 °FClear.5 mph82%30.01 "Hg10 mi
3:50 AM54 °FClear.5 mph82%30.01 "Hg10 mi
3:20 AM54 °FClear.5 mph88%30.01 "Hg10 mi
2:50 AM54 °FClear.3 mph88%30.01 "Hg10 mi
2:20 AM54 °FPassing clouds.3 mph88%30.01 "HgN/A
1:50 AM55 °FClear.3 mph82%30.04 "Hg10 mi
1:20 AM55 °FPassing clouds.5 mph82%30.04 "HgN/A
12:50 AM55 °FClear.1 mph82%30.04 "Hg10 mi
12:20 AM55 °FClear.3 mph82%30.04 "Hg10 mi
11:20 PM
Sun, May 24
57 °FClear.5 mph77%30.04 "Hg10 mi
10:50 PM59 °FClear.5 mph72%30.04 "Hg10 mi
10:20 PM59 °FClear.5 mph72%30.07 "Hg10 mi
9:50 PM59 °FPassing clouds.3 mph72%30.07 "HgN/A
9:20 PM59 °FSunny.3 mph72%30.07 "Hg10 mi
8:50 PM59 °FSunny.3 mph72%30.07 "Hg10 mi
8:20 PM59 °FSunny.3 mph68%30.04 "Hg10 mi
7:50 PM61 °FSunny.5 mph63%30.04 "Hg10 mi
7:20 PM61 °FSunny.3 mph63%30.04 "Hg10 mi
6:50 PM61 °FPassing clouds.3 mph63%30.07 "HgN/A
6:20 PM61 °FBroken clouds.1 mph59%30.07 "HgN/A
5:50 PM61 °FBroken clouds.3 mph59%30.07 "HgN/A
5:20 PM61 °FBroken clouds.3 mph59%30.07 "HgN/A
4:50 PM61 °FScattered showers. Broken clouds.3 mph59%30.07 "HgN/A
4:20 PM61 °FBroken clouds.5 mph63%30.07 "HgN/A
3:50 PM61 °FBroken clouds.7 mph63%30.07 "HgN/A
3:20 PM61 °FBroken clouds.9 mph68%30.07 "HgN/A
2:50 PM64 °FBroken clouds.8 mph56%30.07 "HgN/A
2:20 PM66 °FPartly sunny.5 mph52%30.07 "HgN/A
1:50 PM64 °FPartly sunny.3 mph56%30.09 "HgN/A
1:20 PM63 °FPartly sunny.2 mph59%30.09 "HgN/A
12:50 PM61 °FMore clouds than sun.3 mph68%30.09 "HgN/A
12:20 PM61 °FMore clouds than sun.3 mph63%30.09 "HgN/A
11:50 AM61 °FMore clouds than sun.3 mph68%30.09 "HgN/A
11:20 AM61 °FMore clouds than sun.5 mph68%30.09 "HgN/A
10:50 AM61 °FOvercast.5 mph68%30.09 "HgN/A
10:20 AM59 °FSunny.2 mph72%30.09 "Hg10 mi
9:50 AM59 °FSunny.2 mph72%30.09 "Hg10 mi
9:20 AM57 °FSunny.1 mph77%30.09 "Hg10 mi
8:50 AM57 °FSunny.2 mph77%30.09 "Hg10 mi
8:20 AM57 °FSunny.2 mph77%30.09 "Hg10 mi
Weather by CustomWeather, © 2015

See weather overviewHow to use our weather pages